Location: Peterborough
(44.3091°N, 78.3197°W)
Time: 06:29:55
(UTC-04:00)

A-11 Canister half - Pass Details

Date: 23 March 2023
Orbit: 1513 x 1686 km, 47.2° (Epoch: 04 June)

Event Time Altitude Azimuth Distance (km) Brightness Sun altitude
Exits shadow 04:25:54 33° 287° (WNW) 2,567 9.8 -28.7°
Maximum altitude 04:31:20 80° 206° (SSW) 1,709 9.0 -27.9°
Drops below altitude 10° 04:41:26 10° 121° (ESE) 3,913 11.4 -26.4°
Sets 04:44:33 0° 120° (ESE) 4,883 12.0 -25.9°
